Location: Unnamed
(48.6007°N, 2.4808°E)
Time: 11:19:57
(UTC+02:00)

PCSat - Pass Details

Date: 28 March 2023
Orbit: 783 x 794 km, 67.1° (Epoch: 29 May)

Event Time Altitude Azimuth Distance (km) Brightness Sun altitude
Rises 01:58:48 0° 326° (NNW) 3,301 13.4 -38.6°
Reaches altitude 10° 02:01:17 10° 331° (NNW) 2,370 12.6 -38.6°
Enters shadow 02:03:14 22° 339° (NNW) 1,679 11.7 -38.6°
